Location: Newark
(35.1686°N, 108.2815°E)
Time: 02:17:38
(UTC+00:00)

N. Korean satellite - Visible Passes

Search period start: 09 April 2020 00:00
Search period end: 19 April 2020 00:00
Orbit: 454 x 507 km, 97.2° (Epoch: 08 April)

Date Brightness Start Highest point End Pass type
(mag) Time Alt. Az. Time Alt. Az. Time Alt. Az.
10 Apr 9.3 21:49:39 10° NE 21:52:24 22° E 21:55:10 10° SSE visible
11 Apr 10.3 21:26:24 10° E 21:26:39 10° E 21:26:53 10° E visible
14 Apr 9.5 21:40:52 10° NE 21:43:13 17° E 21:45:35 10° SE visible
18 Apr 9.8 21:32:16 10° ENE 21:34:00 13° E 21:35:45 10° SE visible
